Simultaneous Nadir Overpasses (SNOs) Predictions

Prediction of SNOs between AURA and LANDSAT-8 Satellite Orbit:

Table of predicted SNOs for the next 14.0 days since TLE Epoch: 9/4/2025
Index Date (AURA) Time (AURA) Lat,Lon (AURA) SZA (AURA ) Date (LANDSAT-8) Time (LANDSAT-8) Lat,Lon (LANDSAT-8) SZA (LANDSAT-8 ) Distance(km) Time Diff (sec)
1 09/18/2025 03:34:36 -73.36, -48.94 108.43 09/18/2025 03:33:30 -73.35, -51.53 108.51 82.38 66
2 09/18/2025 04:24:00 73.57, 118.28 71.78 09/18/2025 04:22:52 73.52, 116.46 71.68 57.59 68
3 09/18/2025 05:13:25 -73.89, -74.77 107.90 09/18/2025 05:12:13 -73.88, -75.13 107.94 11.38 72
4 09/18/2025 06:02:47 74.00, 92.67 72.21 09/18/2025 06:01:36 73.99, 92.77 72.20 3.30 71
5 09/18/2025 06:52:05 -73.96, -99.58 107.82 09/18/2025 06:51:04 -73.98, -99.62 107.80 2.74 61
6 09/18/2025 07:41:26 74.01, 67.97 72.25 09/18/2025 07:40:29 73.99, 68.05 72.23 3.26 57
7 09/18/2025 08:30:44 -73.97,-124.27 107.78 09/18/2025 08:29:57 -73.98,-124.34 107.77 2.31 47
8 09/18/2025 09:20:03 73.97, 43.40 72.24 09/18/2025 09:19:21 73.99, 43.33 72.26 2.90 42
9 09/18/2025 10:09:22 -73.99,-148.96 107.74 09/18/2025 10:08:49 -73.98,-149.05 107.75 2.96 33
10 09/18/2025 10:58:42 73.99, 18.71 72.28 09/18/2025 10:58:14 73.99, 18.61 72.28 2.89 28
11 09/18/2025 11:48:01 -74.00,-173.65 107.70 09/18/2025 11:47:41 -74.03,-173.66 107.66 3.74 20
12 09/18/2025 12:37:22 74.05, -6.11 72.37 09/18/2025 12:37:06 74.04, -5.99 72.37 3.73 16
13 09/18/2025 13:26:40 -74.01, 161.66 107.66 09/18/2025 13:26:34 -74.03, 161.62 107.64 2.44 6
14 09/18/2025 14:16:00 74.02, -30.68 72.36 09/18/2025 14:15:59 74.04, -30.71 72.39 3.40 1
15 09/18/2025 15:05:19 -74.03, 136.96 107.62 09/18/2025 15:05:27 -74.04, 136.91 107.61 1.90 8
16 09/18/2025 15:54:39 74.03, -55.37 72.40 09/18/2025 15:54:52 74.05, -55.43 72.42 2.40 13
17 09/18/2025 16:43:58 -74.04, 112.27 107.58 09/18/2025 16:44:20 -74.04, 112.19 107.58 2.65 22
18 09/18/2025 17:33:18 74.04, -80.07 72.44 09/18/2025 17:33:45 74.05, -80.15 72.45 2.42 27
19 09/18/2025 18:22:37 -74.06, 87.58 107.54 09/18/2025 18:23:12 -74.09, 87.58 107.50 3.47 35
20 09/18/2025 19:11:57 74.06,-104.76 72.48 09/18/2025 19:12:38 74.05,-104.86 72.47 3.45 41
21 09/18/2025 20:01:16 -74.07, 62.88 107.50 09/18/2025 20:02:05 -74.09, 62.87 107.47 2.00 49
22 09/18/2025 20:50:36 74.07,-129.45 72.53 09/18/2025 20:51:30 74.10,-129.47 72.56 2.92 54



Historial Predications of SNOs between AURA and LANDSAT-8
